Orbital Elements at Epoch 2459200.5 (2020-Dec-17.0) TDB
Reference: JPL 18 (heliocentric ecliptic J2000)
Element | Value | Uncertainty (1-sigma) | Units |
e | .05406441772529013 | 5.8106e-08 | |
a | 2.53066464943146 | 1.4731e-08 | au |
q | 2.393845738701972 | 1.4624e-07 | au |
i | 2.739957758854545 | 4.1557e-06 | deg |
node | 124.7552014898022 | 0.00011128 | deg |
peri | 215.7723884364335 | 0.00012791 | deg |
M | 165.6811820587314 | 6.5783e-05 | deg |
tp | 2458523.761307023084 (2019-Feb-09.26130702) | 0.0002678 | TDB |
period | 1470.450213140851 4.03 | 1.2839e-05 3.515e-08 | d yr |
n | .2448229778763114 | 2.1377e-09 | deg/d |
Q | 2.667483560160947 | 1.5527e-08 | au |
|
| | Orbit Determination Parameters
Additional Information
|